Вернуться в каталог

SL-12 R/B(2)

АктивенGEO
NORAD 13983·ROCKET BODY·🇷🇺 Russia

Запущен Apr 8, 1983 с Baikonur Cosmodrome

Loading…

TLE

СвежийSource: Space-Track

Эпоха: Sep 14, 2026, 15:03 UTC

1 13983U 83028F   26257.62718792 -.00000124  00000-0  00000-0 0  9997
2 13983   8.0460 305.7750 0024377 227.4156 309.4470  1.00035201158701

Отслеживайте SL-12 R/B(2) в реальном времени с AllMySat

Download on the App Store